Upstream stations:
Downstream station:
SHEF ID: AMAT2 Canadian Rv nr Amarillo, TX
STATION TYPE:
Regulating: Stage = 13.00, Flow = 87096
STAGE RIV-FLOW WTR-TEMP CONDUCT BAT-LOAD
ft cfs F umho/cm volt
Ccp-Rev Ccp-Rev Ccp-Rev Ccp-Rev Ccp-Rev
(US/Central)
05/27 00:00 0.74 1 69.37 3 12.73
05/27 01:00 0.74 1 67.64 3 12.73
05/27 02:00 0.75 1 66.20 3 12.65
05/27 03:00 0.74 1 64.99 3 12.65
05/27 04:00 0.74 1 64.08 3 12.65
05/27 05:00 0.74 1 63.18 3 12.65
05/27 06:00 0.75 1 62.42 3 12.65
05/27 07:00 0.74 1 61.66 3 12.65
05/27 08:00 0.74 1 61.18 3 12.81
05/27 09:00 0.74 1 61.30 3 12.97
05/27 10:00 0.74 1 62.37 3 13.05
05/27 11:00 0.74 1 64.83 4 13.13
05/27 12:00 0.71 1 67.69 4 13.13
05/27 13:00 0.68 0 70.50 4 13.05
05/27 14:00 0.71 1 72.39 4 13.05
05/27 15:00 0.70 1 72.75 4 12.97
05/27 16:00 0.67 0 72.91 4 12.97
05/27 17:00 0.66 0 71.82 4 12.89
05/27 18:00 0.66 0 70.86 4 12.89
05/27 19:00 0.65 0 69.98 4 12.81
05/27 20:00 0.64 0 69.71 4 12.81
05/27 21:00 0.63 0 68.29 4 12.81
05/27 22:00 0.64 0 67.08 4 12.81
05/27 23:00 0.62 0 66.47 4 12.81